Regional Weather Roundup
Issued by NWS

Home | Current Version | Previous Version | Graphics & Text | Print | Product List | Glossary On
Versions: 1 2 3 4 5 6 7 8 9 10 11 12 13 14 15 16 17 18 19 20 21 22 23 24 25 26 27 28 29 30 31 32 33 34 35 36 37 38 39 40 41 42 43 44 45 46 47 48 49 50
000
ASUS43 KLSX 251807
RWRMO

WEATHER SUMMARY FOR MISSOURI
NATIONAL WEATHER SERVICE SPRINGFIELD MO
1200 PM CST TUE NOV 25 2014

NOTE: "FAIR" INDICATES FEW OR NO CLOUDS BELOW 12,000 FEET WITH NO
       SIGNIFICANT WEATHER AND/OR OBSTRUCTIONS TO VISIBILITY.
       CURRENT SKY AND/OR WEATHER CONDITIONS ARE NOT AVAILABLE FOR
       CHILLICOTHE AND FARMINGTON.

MOZ001>031-035>038-043-044-053-054-251900-
...NORTHERN AND WESTERN MISSOURI...

CITY           SKY/WX    TMP DP  RH WIND       PRES   REMARKS
KANSAS CTY INT SUNNY     35  11  36 SW7       30.17F WCI  29
6HR MIN TEMP:  20; 6HR MAX TEMP:  35;

KANSAS C DTWN  SUNNY     37   9  31 SW8       30.19F
6HR MIN TEMP:  24; 6HR MAX TEMP:  37;

LEE`S SUMMIT   SUNNY     36   6  28 SW6       30.19F
6HR MIN TEMP:  22; 6HR MAX TEMP:  36;

ST JOSEPH      SUNNY     34  13  41 S7        30.17F WCI  28
6HR MIN TEMP:  17; 6HR MAX TEMP:  35;

CHILLICOTHE      N/A     34  15  46 W6        30.20F WCI  29
6HR MIN TEMP:  22; 6HR MAX TEMP:  34;

KIRKSVILLE     SUNNY     31  20  63 VRB6      30.17F WCI  25
6HR MIN TEMP:  20; 6HR MAX TEMP:  31;


$$
MOZ066>068-077>081-088>096-101>105-251900-
...SOUTHWEST MISSOURI...

CITY           SKY/WX    TMP DP  RH WIND       PRES   REMARKS
SPRINGFIELD    SUNNY     38  16  40 VRB5      30.21F
6HR MIN TEMP:  24; 6HR MAX TEMP:  39;

JOPLIN         SUNNY     41  14  33 SW7       30.23F
6HR MIN TEMP:  23; 6HR MAX TEMP:  41;


$$
MOZ032>034-039>042-045>050-055>058-069>072-251900-
...CENTRAL MISSOURI...

CITY           SKY/WX    TMP DP  RH WIND       PRES   REMARKS
COLUMBIA       SUNNY     35  19  52 VRB5      30.19F
6HR MIN TEMP:  24; 6HR MAX TEMP:  35;

JEFFERSON CITY SUNNY     36  18  48 VRB6      30.22F
6HR MIN TEMP:  25; 6HR MAX TEMP:  36;

ROLLA          SUNNY     34  19  54 VRB5      30.18S WCI  30
6HR MIN TEMP:  24; 6HR MAX TEMP:  35;

SEDALIA        SUNNY     36  17  46 W9        30.21F WCI  29
6HR MIN TEMP:  24; 6HR MAX TEMP:  36;

WHITEMAN AFB   SUNNY     36  14  39 VRB2      30.19F
WARRENSBURG    SUNNY     36  14  41 S6        30.20F
OSAGE BEACH    SUNNY     37  16  41 W5        30.21F

$$
MOZ051-052-059>065-251900-
...EAST CENTRAL MISSOURI...

CITY           SKY/WX    TMP DP  RH WIND       PRES   REMARKS
ST LOUIS INTL  MOSUNNY   37  22  54 SW5       30.21S
6HR MIN TEMP:  30; 6HR MAX TEMP:  38;

SPIRIT OF STL  SUNNY     36  22  56 W8        30.20F WCI  30
6HR MIN TEMP:  28; 6HR MAX TEMP:  36;

ST CHARLES     MOSUNNY   34  23  64 S8        30.21S WCI  27
6HR MIN TEMP:  30; 6HR MAX TEMP:  34;


$$
MOZ072>076-082>087-097>100-106>115-251900-
...SOUTH CENTRAL AND SOUTHEAST MISSOURI...

CITY           SKY/WX    TMP DP  RH WIND       PRES   REMARKS
CAPE GIRARDEAU SUNNY     40  25  55 NW9       30.19F
6HR MIN TEMP:  28; 6HR MAX TEMP:  41;

FARMINGTON     SUNNY     37  21  52 SW5       30.19F
6HR MIN TEMP:  27; 6HR MAX TEMP:  37;

POPLAR BLUFF   SUNNY     42  21  43 NW9       30.20F
6HR MIN TEMP:  29; 6HR MAX TEMP:  42;

WEST PLAINS    SUNNY     40  19  43 VRB5      30.21F
6HR MIN TEMP:  24; 6HR MAX TEMP:  41;


$$



USA.gov is the U.S. government's official web portal to all federal, state and local government web resources and services.